EW6089 Weather Reports


time (UTC)temp
F
wind
direction
speed
knots
gust
knots
rain 1hr
in
rain 24hr
in
rain mn
in
humidity
%
barometer
mb
20260903202018 64 68 0.9 2.6 0.00 0.19 0.00 64 1010.0
20260903201017 63 0.0 0.0 0.00 0.19 0.00 66 1010.0
20260903200018 63 0.0 1.7 0.00 0.19 0.00 66 1010.2
20260903195040 63 0.0 1.7 0.00 0.19 0.00 63 1010.1
20260903194018 63 45 0.9 2.6 0.00 0.19 0.00 64 1010.0
20260903193038 63 0.0 2.6 0.00 0.19 0.00 65 1010.0
20260903192017 63 0.0 1.7 0.00 0.19 0.00 65 1009.8
20260903191017 63 0.0 0.9 0.00 0.19 0.00 65 1009.8
20260903190017 62 0.0 2.6 0.00 0.19 0.00 69 1009.8
20260903185017 62 135 0.9 3.5 0.00 0.19 0.00 67 1009.9
20260903184018 62 113 0.9 7.8 0.00 0.19 0.00 71 1009.8
20260903183017 62 338 0.9 5.2 0.00 0.19 0.00 70 1009.7
20260903182017 61 113 0.9 4.3 0.00 0.19 0.00 69 1009.7
20260903181017 61 68 0.9 4.3 0.00 0.19 0.00 71 1009.5
20260903180017 61 0.0 1.7 0.00 0.19 0.00 80 1009.5
20260903175017 60 0.0 0.9 0.00 0.19 0.00 79 1009.5
20260903174017 59 0.0 0.0 0.00 0.19 0.00 85 1009.5
20260903173017 58 0.0 0.0 0.00 0.19 0.00 88 1009.6
20260903172016 57 0.0 0.0 0.00 0.19 0.00 91 1009.5
20260903171038 57 0.0 0.0 0.00 0.19 0.00 92 1009.4
20260903170017 56 0.0 0.0 0.00 0.19 0.00 91 1009.5
20260903165057 56 0.0 0.0 0.00 0.19 0.00 91 1009.5
20260903164017 55 0.0 0.0 0.00 0.19 0.00 92 1009.5
20260903163037 55 0.0 0.0 0.00 0.19 0.00 93 1009.5
20260903162017 55 0.0 1.7 0.00 0.19 0.00 93 1009.6
20260903161017 55 0.0 0.0 0.00 0.19 0.00 94 1009.7
20260903160020 54 0.0 0.0 0.00 0.19 0.00 94 1009.7
20260903155044 54 0.0 0.0 0.00 0.19 0.00 95 1009.5
20260903154016 54 0.0 0.0 0.00 0.19 0.00 96 1009.5
20260903153017 54 0.0 0.0 0.00 0.19 0.00 97 1009.6
20260903152017 53 0.0 0.0 0.00 0.19 0.00 97 1009.6
20260903151018 53 0.0 0.0 0.00 0.19 0.00 97 1009.6
20260903150018 53 0.0 0.0 0.00 0.19 0.00 97 1009.6
20260903145104 52 0.0 0.0 0.00 0.19 0.00 97 1009.6
20260903144017 52 0.0 0.0 0.00 0.19 0.00 97 1009.6
20260903143018 52 0.0 0.0 0.00 0.19 0.00 97 1009.5
20260903142017 52 0.0 0.0 0.00 0.19 0.00 97 1009.5
20260903141017 52 0.0 0.0 0.00 0.19 0.00 97 1009.4
20260903140017 52 0.0 0.0 0.00 0.19 0.00 97 1009.5
20260903135017 52 0.0 0.0 0.00 0.19 0.00 97 1009.4
20260903134016 52 0.0 0.0 0.00 0.19 0.00 97 1009.3
20260903133016 52 0.0 0.0 0.00 0.19 0.00 97 1009.1
20260903132016 52 0.0 0.0 0.00 0.19 0.00 97 1009.1
20260903131017 52 0.0 0.0 0.00 0.19 0.00 97 1009.1
20260903130017 52 0.0 0.0 0.00 0.19 0.00 97 1008.9
20260903125017 52 0.0 0.0 0.00 0.19 0.00 97 1008.8
20260903124017 52 0.0 0.0 0.00 0.19 0.00 97 1008.7
20260903123016 52 0.0 0.0 0.00 0.19 0.00 97 1008.6
20260903122016 52 0.0 0.0 0.00 0.19 0.00 97 1008.6
20260903121017 52 0.0 0.0 0.00 0.19 0.00 97 1008.6
20260903120117 52 0.0 0.0 0.00 0.19 0.00 97 1008.6
20260903115017 52 0.0 0.0 0.00 0.19 0.00 97 1008.6
20260903114036 52 0.0 0.0 0.00 0.19 0.00 97 1008.6
20260903113016 52 0.0 0.0 0.00 0.19 0.00 97 1008.5
20260903112016 52 0.0 0.0 0.00 0.19 0.00 97 1008.4
20260903111016 52 0.0 0.0 0.00 0.19 0.00 97 1008.3
20260903110016 52 0.0 0.0 0.00 0.19 0.00 97 1008.4
20260903105016 52 0.0 0.0 0.00 0.19 0.00 97 1008.4
20260903104016 52 0.0 0.0 0.00 0.19 0.00 97 1008.4
20260903103016 52 0.0 0.0 0.00 0.19 0.00 97 1008.4
20260903102036 52 0.0 0.0 0.00 0.19 0.00 97 1008.5
20260903101016 52 0.0 0.0 0.00 0.19 0.00 97 1008.4
20260903100016 52 0.0 0.0 0.00 0.19 0.00 97 1008.5
20260903095016 52 0.0 0.0 0.00 0.19 0.00 97 1008.4
20260903094016 52 0.0 0.0 0.00 0.19 0.00 97 1008.3
20260903093017 52 0.0 0.0 0.00 0.19 0.00 97 1008.3
20260903092016 52 0.0 0.0 0.00 0.19 0.00 97 1008.2
20260903091016 52 0.0 0.0 0.00 0.19 0.00 97 1008.3
20260903090016 52 0.0 0.0 0.00 0.19 0.00 97 1008.3
20260903085036 52 0.0 0.0 0.00 0.19 0.00 97 1008.2
20260903084020 52 0.0 0.0 0.00 0.19 0.00 97 1008.3
20260903083022 52 0.0 0.0 0.00 0.19 0.00 97 1008.4
20260903082017 52 0.0 0.0 0.00 0.19 0.00 97 1008.3
20260903081019 52 0.0 0.0 0.00 0.19 0.00 97 1008.2
20260903080016 52 0.0 0.0 0.00 0.19 0.00 97 1008.3
20260903075016 53 0.0 0.0 0.00 0.19 0.00 97 1008.2
20260903074016 53 0.0 0.0 0.00 0.19 0.00 97 1008.2
20260903073036 53 0.0 0.0 0.00 0.19 0.00 97 1008.1
20260903072037 53 0.0 0.0 0.00 0.19 0.00 97 1008.2
20260903071016 53 0.0 0.0 0.00 0.19 0.00 97 1008.0
20260903070016 53 0.0 0.0 0.00 0.19 0.19 97 1008.1
20260903065016 53 0.0 0.9 0.00 0.19 0.19 97 1008.2
20260903064016 53 0.0 0.9 0.00 0.19 0.19 97 1008.0
20260903063016 53 0.0 0.9 0.00 0.19 0.19 97 1007.8
20260903062016 53 0.0 0.9 0.00 0.19 0.19 97 1007.9
20260903061016 53 0.0 0.9 0.00 0.19 0.19 96 1007.8
20260903060016 53 0.0 0.0 0.00 0.19 0.19 97 1007.8
20260903055016 54 0.0 0.9 0.00 0.19 0.19 97 1007.9
20260903054016 54 0.0 0.0 0.00 0.19 0.19 97 1008.1
20260903053036 54 0.0 0.9 0.00 0.19 0.19 97 1008.1
20260903052016 54 0.0 0.0 0.00 0.19 0.19 97 1008.0
20260903051017 54 0.0 0.0 0.00 0.19 0.19 96 1008.0
20260903050049 54 0.0 0.0 0.00 0.19 0.19 96 1007.8
20260903045016 54 0.0 0.0 0.00 0.19 0.19 96 1007.8
20260903044015 54 0.0 0.0 0.00 0.19 0.19 96 1007.8
20260903043018 54 0.0 0.0 0.00 0.19 0.19 96 1007.7
20260903042047 55 0.0 0.0 0.00 0.19 0.19 96 1007.6
20260903041042 55 0.0 0.0 0.00 0.19 0.19 96 1007.5
20260903040019 55 0.0 0.0 0.00 0.19 0.19 96 1007.5
20260903035022 55 0.0 0.0 0.00 0.20 0.19 96 1007.4
20260903034019 55 0.0 0.0 0.00 0.20 0.19 96 1007.2
20260903033017 56 0.0 0.0 0.00 0.20 0.19 96 1007.1
20260903032017 56 0.0 0.0 0.00 0.20 0.19 96 1007.2
20260903031018 56 0.0 0.0 0.00 0.20 0.19 96 1006.9
20260903030016 57 0.0 0.0 0.00 0.20 0.19 96 1006.8
20260903025017 57 0.0 0.0 0.00 0.20 0.19 96 1006.6
20260903024018 57 0.0 0.0 0.00 0.20 0.19 96 1006.5
20260903023016 58 0.0 0.0 0.00 0.20 0.19 96 1006.3
20260903022016 58 0.0 0.0 0.01 0.20 0.19 96 1006.2
20260903021017 58 0.0 0.9 0.03 0.20 0.19 96 1006.1
20260903020019 58 0.0 2.6 0.03 0.20 0.19 96 1006.0
20260903015018 58 0.0 0.0 0.03 0.20 0.19 96 1005.8
20260903014016 58 0.0 0.0 0.03 0.20 0.19 96 1005.8
20260903013016 58 0.0 0.0 0.03 0.20 0.19 96 1005.5
20260903012023 59 0.0 1.7 0.02 0.19 0.18 96 1005.4
20260903011056 59 0.0 1.7 0.00 0.17 0.16 96 1005.3
20260903010037 59 0.0 0.9 0.01 0.17 0.16 96 1004.9
20260903005028 59 0.0 0.0 0.01 0.17 0.16 96 1004.3
20260903004016 59 0.0 0.0 0.01 0.17 0.16 96 1004.4
20260903003058 59 0.0 0.0 0.02 0.17 0.16 96 1004.4
20260903002016 59 0.0 0.0 0.03 0.17 0.16 96 1004.4
20260903001016 59 0.0 0.0 0.04 0.17 0.16 95 1004.6
20260903000016 59 0.0 0.0 0.04 0.16 0.15 95 1004.6
20260902235018 59 0.0 0.0 0.05 0.16 0.15 95 1004.7
20260902234018 59 0.0 0.0 0.06 0.16 0.15 95 1004.9
20260902233017 59 0.0 0.0 0.06 0.15 0.14 95 1005.2
20260902232016 59 0.0 0.0 0.06 0.14 0.13 95 1005.1
20260902231017 59 0.0 0.0 0.06 0.13 0.12 94 1004.9
20260902230021 60 0.0 0.0 0.05 0.12 0.11 94 1004.8
20260902225041 60 0.0 0.9 0.05 0.11 0.10 94 1005.1
20260902224022 60 0.0 0.0 0.04 0.10 0.09 93 1004.9
20260902223036 60 0.0 0.9 0.04 0.09 0.08 93 1005.0
20260902222016 60 0.0 0.9 0.05 0.08 0.07 93 1004.8
20260902221050 60 0.0 0.9 0.05 0.07 0.06 92 1004.7
20260902220016 60 0.0 0.9 0.06 0.07 0.06 92 1004.7
20260902215016 61 0.0 0.9 0.05 0.06 0.05 91 1004.5
20260902214023 61 0.0 0.0 0.05 0.06 0.05 89 1004.6
20260902213016 62 0.0 0.9 0.04 0.05 0.04 86 1004.8
20260902212016 63 0.0 0.9 0.02 0.03 0.02 83 1004.8
20260902211016 65 0.0 0.9 0.01 0.02 0.01 77 1004.8
20260902210016 66 0.0 4.3 0.00 0.01 0.00 72 1004.9
20260902205036 66 0.0 2.6 0.00 0.01 0.00 68 1004.7
20260902204016 66 0.0 3.5 0.00 0.01 0.00 68 1004.6
20260902203016 67 45 1.7 7.0 0.00 0.01 0.00 67 1004.6